Rochester, NY

5:44 AM EDT on September 17, 2019 (GMT -0400)
Greater Rochester International

Weather History for KROC - July, 2019

Change the Weather History Date:

Friday, July 12, 2019

  Actual Average Record
Temperature  
Mean Temperature 69 °F 71 °F  
Max Temperature 75 °F 81 °F 94 °F (1966)
Min Temperature 63 °F 61 °F 45 °F (1898)
Degree Days  
Heating Degree Days 0 0  
Month to date heating degree days 0 6  
Since 1 June heating degree days 48 74  
Since 1 July heating degree days 0 6  
Cooling Degree Days 4 6  
Month to date cooling degree days 101 72  
Year to date cooling degree days 194 208  
Since 1 June cooling degree days 184 178  
Growing Degree Days 20 (Base 50)    
Moisture  
Dew Point 60 °F    
Average Humidity 74    
Maximum Humidity 84    
Minimum Humidity 64    
Precipitation  
Precipitation 0.00 in 0.10 in 3.33 in (2006)
Month to date precipitation 1.98 1.26  
Year to date precipitation 18.45 17.06  
Snow  
Snow 0.00 in 0.00 in 0.00 in ()
Month to date snowfall 0.0 0.0  
Since 1 June snowfall 0.0 0.0  
Since 1 July snowfall 0.0 0.0  
Snow Depth 0.00 in    
Sea Level Pressure  
Sea Level Pressure 29.85 in    
Wind  
Wind Speed 9 mph (WNW)    
Max Wind Speed 17 mph    
Max Gust Speed 22 mph    
Visibility 10 miles    
Events      
T = Trace of Precipitation, MM = Missing Value Source: NWS Daily Summary

Daily Weather History Graph

Daily Weather History Graph

Search for Another Location

Airport or City:

Astronomy

Jul. 12, 2019 Rise Set
Actual Time 5:42 AM EDT 8:50 PM EDT
Civil Twilight 5:07 AM EDT 9:24 PM EDT
Nautical Twilight 4:23 AM EDT 10:08 PM EDT
Astronomical Twilight 3:29 AM EDT 11:01 PM EDT
Moon 5:04 PM EDT (7/12) 2:28 AM EDT (7/12)
Length of Visible Light 16h 16m
Length of Day
15h 07m
Waxing Gibbous, 82% of the Moon is Illuminated
Jul 12
Waxing Gibbous
Jul 16
Full
Jul 24
Last Quarter
Jul 31
New
Aug 7
First Quarter

Hourly Weather History & Observations

Time (EDT) Temp. Dew Point Humidity Pressure Visibility Wind Dir Wind Speed Gust Speed Precip Events Conditions
12:54 AM 69.1 °F 61.0 °F 75% 29.78 in 10.0 mi NW 5.8 mph - N/A   Scattered Clouds
1:54 AM 68.0 °F 60.1 °F 76% 29.78 in 10.0 mi NW 4.6 mph - N/A   Mostly Cloudy
2:54 AM 68.0 °F 59.0 °F 73% 29.78 in 10.0 mi NW 6.9 mph - N/A   Overcast
3:24 AM 66.9 °F 59.0 °F 76% 29.79 in 10.0 mi WNW 8.1 mph - N/A   Overcast
3:54 AM 66.9 °F 59.0 °F 76% 29.78 in 10.0 mi West 9.2 mph - N/A   Mostly Cloudy
4:54 AM 64.0 °F 57.9 °F 80% 29.79 in 10.0 mi West 9.2 mph - N/A   Mostly Cloudy
5:54 AM 64.0 °F 57.0 °F 78% 29.80 in 10.0 mi West 9.2 mph - N/A   Overcast
6:54 AM 64.9 °F 57.9 °F 78% 29.81 in 10.0 mi West 9.2 mph - N/A   Overcast
7:54 AM 66.9 °F 59.0 °F 76% 29.82 in 10.0 mi West 10.4 mph - N/A   Overcast
8:54 AM 66.9 °F 60.1 °F 79% 29.84 in 10.0 mi West 10.4 mph - N/A   Overcast
9:54 AM 68.0 °F 61.0 °F 78% 29.84 in 10.0 mi WNW 13.8 mph - N/A   Overcast
10:54 AM 69.1 °F 62.1 °F 78% 29.86 in 10.0 mi WNW 12.7 mph - N/A   Overcast
11:54 AM 70.0 °F 63.0 °F 78% 29.87 in 10.0 mi WNW 11.5 mph - N/A   Overcast
12:37 PM 71.1 °F 62.1 °F 73% 29.88 in 10.0 mi NW 15.0 mph - N/A   Overcast
12:54 PM 71.1 °F 62.1 °F 73% 29.88 in 10.0 mi WNW 15.0 mph - N/A   Mostly Cloudy
1:54 PM 71.1 °F 62.1 °F 73% 29.88 in 10.0 mi WNW 12.7 mph - N/A   Overcast
2:54 PM 73.0 °F 61.0 °F 66% 29.88 in 10.0 mi NW 11.5 mph - N/A   Overcast
3:54 PM 73.0 °F 62.1 °F 68% 29.88 in 10.0 mi NNW 10.4 mph - N/A   Overcast
4:43 PM 73.9 °F 62.1 °F 66% 29.87 in 10.0 mi NW 8.1 mph - N/A   Mostly Cloudy
4:54 PM 75.0 °F 63.0 °F 66% 29.87 in 10.0 mi NW 8.1 mph - N/A   Mostly Cloudy
5:17 PM 73.9 °F 62.1 °F 66% 29.87 in 10.0 mi NW 10.4 mph - N/A   Mostly Cloudy
5:54 PM 73.0 °F 62.1 °F 68% 29.88 in 10.0 mi West 6.9 mph - N/A   Overcast
6:54 PM 73.0 °F 61.0 °F 66% 29.88 in 10.0 mi West 10.4 mph - N/A   Mostly Cloudy
7:54 PM 72.0 °F 60.1 °F 66% 29.90 in 10.0 mi West 10.4 mph - N/A   Overcast
8:54 PM 70.0 °F 60.1 °F 71% 29.90 in 10.0 mi WNW 8.1 mph - N/A   Mostly Cloudy
9:54 PM 68.0 °F 59.0 °F 73% 29.92 in 10.0 mi West 5.8 mph - N/A   Scattered Clouds
10:54 PM 64.9 °F 59.0 °F 81% 29.92 in 10.0 mi WSW 4.6 mph - N/A   Partly Cloudy
11:54 PM 64.9 °F 59.0 °F 81% 29.92 in 10.0 mi West 6.9 mph - N/A   Partly Cloudy